iso_date,epoch_date,Year,Hour,Min,DOY,POS_DOY,Lat,Lon,BP,Ts,Ta,has_bp,has_ts,has_ta,BuoyID,Buoy_Type,Buoy_Owner,Logistics,Hemisphere
2019-10-08T00:02:00Z,1570492921,2019,0,2,281.0014,281.0014,84.9354,136.205,1013.8,-999.00,-999.0,yes,no,no,300025060015720,IMB-bio-rad,AWI,MOSAiC,North
2019-10-08T01:01:03Z,1570496463,2019,1,1,281.0424,281.0424,84.9314,136.304,1012.5,-999.00,-999.0,yes,no,no,300025060015720,IMB-bio-rad,AWI,MOSAiC,North
2019-10-08T02:00:57Z,1570500058,2019,2,1,281.084,281.084,84.927,136.4049,1011.3,-999.00,-999.0,yes,no,no,300025060015720,IMB-bio-rad,AWI,MOSAiC,North
2019-10-08T03:01:00Z,1570503660,2019,3,1,281.1257,281.1257,84.9223,136.506,1010.3,-999.00,-999.0,yes,no,no,300025060015720,IMB-bio-rad,AWI,MOSAiC,North
2019-10-08T04:01:03Z,1570507263,2019,4,1,281.1674,281.1674,84.9171,136.6014,1009.2,-999.00,-999.0,yes,no,no,300025060015720,IMB-bio-rad,AWI,MOSAiC,North
2019-10-08T05:00:57Z,1570510858,2019,5,1,281.209,281.209,84.9115,136.6914,1008.3,-999.00,-999.0,yes,no,no,300025060015720,IMB-bio-rad,AWI,MOSAiC,North
2019-10-08T06:01:00Z,1570514460,2019,6,1,281.2507,281.2507,84.9056,136.7728,1007.2,-999.00,-999.0,yes,no,no,300025060015720,IMB-bio-rad,AWI,MOSAiC,North
2019-10-08T07:01:03Z,1570518063,2019,7,1,281.2924,281.2924,84.8995,136.8409,1006.3,-999.00,-999.0,yes,no,no,300025060015720,IMB-bio-rad,AWI,MOSAiC,North
2019-10-08T08:00:57Z,1570521658,2019,8,1,281.334,281.334,84.8932,136.8955,1005.7,-999.00,-999.0,yes,no,no,300025060015720,IMB-bio-rad,AWI,MOSAiC,North
2019-10-08T09:01:00Z,1570525260,2019,9,1,281.3757,281.3757,84.887,136.937,1004.9,-999.00,-999.0,yes,no,no,300025060015720,IMB-bio-rad,AWI,MOSAiC,North
2019-10-08T10:01:03Z,1570528863,2019,10,1,281.4174,281.4174,84.8812,136.9643,1004.6,-999.00,-999.0,yes,no,no,300025060015720,IMB-bio-rad,AWI,MOSAiC,North
2019-10-08T11:01:58Z,1570532518,2019,11,2,281.4597,281.4597,84.8749,136.9761,1004.6,-999.00,-999.0,yes,no,no,300025060015720,IMB-bio-rad,AWI,MOSAiC,North
2019-10-08T12:01:00Z,1570536060,2019,12,1,281.5007,281.5007,84.8688,136.9786,1004.8,-999.00,-999.0,yes,no,no,300025060015720,IMB-bio-rad,AWI,MOSAiC,North
2019-10-08T13:01:03Z,1570539663,2019,13,1,281.5424,281.5424,84.8634,136.975,1004.9,-999.00,-999.0,yes,no,no,300025060015720,IMB-bio-rad,AWI,MOSAiC,North
2019-10-08T14:00:57Z,1570543258,2019,14,1,281.584,281.584,84.8585,136.9693,1005.2,-999.00,-999.0,yes,no,no,300025060015720,IMB-bio-rad,AWI,MOSAiC,North
2019-10-08T15:01:00Z,1570546860,2019,15,1,281.6257,281.6257,84.8543,136.9632,1005.3,-999.00,-999.0,yes,no,no,300025060015720,IMB-bio-rad,AWI,MOSAiC,North
2019-10-08T16:01:03Z,1570550463,2019,16,1,281.6674,281.6674,84.8507,136.9584,1005.6,-999.00,-999.0,yes,no,no,300025060015720,IMB-bio-rad,AWI,MOSAiC,North
2019-10-08T17:00:57Z,1570554058,2019,17,1,281.709,281.709,84.8473,136.9556,1005.7,-999.00,-999.0,yes,no,no,300025060015720,IMB-bio-rad,AWI,MOSAiC,North
2019-10-08T18:01:00Z,1570557660,2019,18,1,281.7507,281.7507,84.844,136.955,1006.0,-999.00,-999.0,yes,no,no,300025060015720,IMB-bio-rad,AWI,MOSAiC,North
2019-10-08T19:01:03Z,1570561263,2019,19,1,281.7924,281.7924,84.8402,136.9523,1006.4,-999.00,-999.0,yes,no,no,300025060015720,IMB-bio-rad,AWI,MOSAiC,North
2019-10-08T20:00:57Z,1570564858,2019,20,1,281.834,281.834,84.8363,136.9454,1006.7,-999.00,-999.0,yes,no,no,300025060015720,IMB-bio-rad,AWI,MOSAiC,North
2019-10-08T21:01:00Z,1570568460,2019,21,1,281.8757,281.8757,84.8326,136.9325,1007.1,-999.00,-999.0,yes,no,no,300025060015720,IMB-bio-rad,AWI,MOSAiC,North
2019-10-08T22:01:03Z,1570572063,2019,22,1,281.9174,281.9174,84.8293,136.9155,1007.3,-999.00,-999.0,yes,no,no,300025060015720,IMB-bio-rad,AWI,MOSAiC,North
2019-10-08T23:01:58Z,1570575718,2019,23,2,281.9597,281.9597,84.8263,136.8924,1007.5,-999.00,-999.0,yes,no,no,300025060015720,IMB-bio-rad,AWI,MOSAiC,North
2019-10-09T00:02:00Z,1570579321,2019,0,2,282.0014,282.0014,84.8242,136.8656,1007.8,-999.00,-999.0,yes,no,no,300025060015720,IMB-bio-rad,AWI,MOSAiC,North
2019-10-09T01:01:03Z,1570582863,2019,1,1,282.0424,282.0424,84.8228,136.8385,1007.9,-999.00,-999.0,yes,no,no,300025060015720,IMB-bio-rad,AWI,MOSAiC,North
2019-10-09T02:00:57Z,1570586458,2019,2,1,282.084,282.084,84.8217,136.8128,1008.3,-999.00,-999.0,yes,no,no,300025060015720,IMB-bio-rad,AWI,MOSAiC,North
2019-10-09T03:01:00Z,1570590060,2019,3,1,282.1257,282.1257,84.8214,136.7906,1008.6,-999.00,-999.0,yes,no,no,300025060015720,IMB-bio-rad,AWI,MOSAiC,North
2019-10-09T04:01:03Z,1570593663,2019,4,1,282.1674,282.1674,84.8217,136.7749,1009.1,-999.00,-999.0,yes,no,no,300025060015720,IMB-bio-rad,AWI,MOSAiC,North
2019-10-09T05:00:57Z,1570597258,2019,5,1,282.209,282.209,84.8218,136.7642,1009.5,-999.00,-999.0,yes,no,no,300025060015720,IMB-bio-rad,AWI,MOSAiC,North
2019-10-09T06:01:00Z,1570600860,2019,6,1,282.2507,282.2507,84.8218,136.7573,1009.6,-999.00,-999.0,yes,no,no,300025060015720,IMB-bio-rad,AWI,MOSAiC,North
2019-10-09T07:01:03Z,1570604463,2019,7,1,282.2924,282.2924,84.8211,136.7501,1009.9,-999.00,-999.0,yes,no,no,300025060015720,IMB-bio-rad,AWI,MOSAiC,North
2019-10-09T08:00:57Z,1570608058,2019,8,1,282.334,282.334,84.8199,136.7411,1010.2,-999.00,-999.0,yes,no,no,300025060015720,IMB-bio-rad,AWI,MOSAiC,North
2019-10-09T09:01:00Z,1570611660,2019,9,1,282.3757,282.3757,84.8184,136.7297,1010.3,-999.00,-999.0,yes,no,no,300025060015720,IMB-bio-rad,AWI,MOSAiC,North
2019-10-09T10:01:03Z,1570615263,2019,10,1,282.4174,282.4174,84.8171,136.7151,1010.3,-999.00,-999.0,yes,no,no,300025060015720,IMB-bio-rad,AWI,MOSAiC,North
2019-10-09T11:01:58Z,1570618918,2019,11,2,282.4597,282.4597,84.8162,136.6988,1010.0,-999.00,-999.0,yes,no,no,300025060015720,IMB-bio-rad,AWI,MOSAiC,North
2019-10-09T12:02:00Z,1570622521,2019,12,2,282.5014,282.5014,84.8156,136.6839,1010.2,-999.00,-999.0,yes,no,no,300025060015720,IMB-bio-rad,AWI,MOSAiC,North
2019-10-09T13:01:03Z,1570626063,2019,13,1,282.5424,282.5424,84.8152,136.6708,1010.1,-999.00,-999.0,yes,no,no,300025060015720,IMB-bio-rad,AWI,MOSAiC,North
2019-10-09T14:01:58Z,1570629718,2019,14,2,282.5847,282.5847,84.8152,136.6594,1010.0,-999.00,-999.0,yes,no,no,300025060015720,IMB-bio-rad,AWI,MOSAiC,North
2019-10-09T15:01:00Z,1570633260,2019,15,1,282.6257,282.6257,84.8157,136.6512,1009.8,-999.00,-999.0,yes,no,no,300025060015720,IMB-bio-rad,AWI,MOSAiC,North
2019-10-09T16:01:03Z,1570636863,2019,16,1,282.6674,282.6674,84.8166,136.6443,1009.7,-999.00,-999.0,yes,no,no,300025060015720,IMB-bio-rad,AWI,MOSAiC,North
2019-10-09T17:01:58Z,1570640518,2019,17,2,282.7097,282.7097,84.8179,136.638,1009.4,-999.00,-999.0,yes,no,no,300025060015720,IMB-bio-rad,AWI,MOSAiC,North
2019-10-09T18:02:00Z,1570644121,2019,18,2,282.7514,282.7514,84.8192,136.6303,1009.4,-999.00,-999.0,yes,no,no,300025060015720,IMB-bio-rad,AWI,MOSAiC,North
2019-10-09T19:01:03Z,1570647663,2019,19,1,282.7924,282.7924,84.8205,136.6196,1009.3,-999.00,-999.0,yes,no,no,300025060015720,IMB-bio-rad,AWI,MOSAiC,North
2019-10-09T20:00:57Z,1570651258,2019,20,1,282.834,282.834,84.8217,136.603,1009.2,-999.00,-999.0,yes,no,no,300025060015720,IMB-bio-rad,AWI,MOSAiC,North
2019-10-09T21:01:00Z,1570654860,2019,21,1,282.8757,282.8757,84.8228,136.5793,1009.5,-999.00,-999.0,yes,no,no,300025060015720,IMB-bio-rad,AWI,MOSAiC,North
2019-10-09T22:01:03Z,1570658463,2019,22,1,282.9174,282.9174,84.8238,136.5482,1009.7,-999.00,-999.0,yes,no,no,300025060015720,IMB-bio-rad,AWI,MOSAiC,North
2019-10-09T23:00:57Z,1570662058,2019,23,1,282.959,282.959,84.8247,136.5112,1010.0,-999.00,-999.0,yes,no,no,300025060015720,IMB-bio-rad,AWI,MOSAiC,North
2019-10-10T00:02:00Z,1570665721,2019,0,2,283.0014,283.0014,84.8259,136.468,1010.2,-999.00,-999.0,yes,no,no,300025060015720,IMB-bio-rad,AWI,MOSAiC,North
2019-10-10T01:01:03Z,1570669263,2019,1,1,283.0424,283.0424,84.8275,136.4229,1010.5,-999.00,-999.0,yes,no,no,300025060015720,IMB-bio-rad,AWI,MOSAiC,North
2019-10-10T02:00:57Z,1570672858,2019,2,1,283.084,283.084,84.8292,136.3765,1011.1,-999.00,-999.0,yes,no,no,300025060015720,IMB-bio-rad,AWI,MOSAiC,North
2019-10-10T03:02:00Z,1570676521,2019,3,2,283.1264,283.1264,84.8312,136.3293,1011.7,-999.00,-999.0,yes,no,no,300025060015720,IMB-bio-rad,AWI,MOSAiC,North
2019-10-10T04:02:03Z,1570680124,2019,4,2,283.1681,283.1681,84.8332,136.2845,1012.2,-999.00,-999.0,yes,no,no,300025060015720,IMB-bio-rad,AWI,MOSAiC,North
2019-10-10T05:01:58Z,1570683718,2019,5,2,283.2097,283.2097,84.835,136.2449,1013.1,-999.00,-999.0,yes,no,no,300025060015720,IMB-bio-rad,AWI,MOSAiC,North
2019-10-10T06:01:00Z,1570687260,2019,6,1,283.2507,283.2507,84.836,136.2111,1014.1,-999.00,-999.0,yes,no,no,300025060015720,IMB-bio-rad,AWI,MOSAiC,North
2019-10-10T07:01:03Z,1570690863,2019,7,1,283.2924,283.2924,84.8364,136.1821,1014.8,-999.00,-999.0,yes,no,no,300025060015720,IMB-bio-rad,AWI,MOSAiC,North
2019-10-10T08:00:57Z,1570694458,2019,8,1,283.334,283.334,84.8359,136.1607,1015.4,-999.00,-999.0,yes,no,no,300025060015720,IMB-bio-rad,AWI,MOSAiC,North
2019-10-10T09:01:00Z,1570698060,2019,9,1,283.3757,283.3757,84.8348,136.138,1016.0,-999.00,-999.0,yes,no,no,300025060015720,IMB-bio-rad,AWI,MOSAiC,North
2019-10-10T10:01:03Z,1570701663,2019,10,1,283.4174,283.4174,84.8333,136.1137,1016.5,-999.00,-999.0,yes,no,no,300025060015720,IMB-bio-rad,AWI,MOSAiC,North
2019-10-10T11:01:58Z,1570705318,2019,11,2,283.4597,283.4597,84.8317,136.0866,1017.1,-999.00,-999.0,yes,no,no,300025060015720,IMB-bio-rad,AWI,MOSAiC,North
2019-10-10T12:01:00Z,1570708860,2019,12,1,283.5007,283.5007,84.8302,136.0597,1017.4,-999.00,-999.0,yes,no,no,300025060015720,IMB-bio-rad,AWI,MOSAiC,North
2019-10-10T13:01:03Z,1570712463,2019,13,1,283.5424,283.5424,84.8289,136.0361,1017.8,-999.00,-999.0,yes,no,no,300025060015720,IMB-bio-rad,AWI,MOSAiC,North
2019-10-10T14:00:57Z,1570716058,2019,14,1,283.584,283.584,84.8278,136.0176,1018.2,-999.00,-999.0,yes,no,no,300025060015720,IMB-bio-rad,AWI,MOSAiC,North
2019-10-10T15:01:00Z,1570719660,2019,15,1,283.6257,283.6257,84.8269,136.0074,1018.4,-999.00,-999.0,yes,no,no,300025060015720,IMB-bio-rad,AWI,MOSAiC,North
2019-10-10T16:01:03Z,1570723263,2019,16,1,283.6674,283.6674,84.8261,136.0067,1018.6,-999.00,-999.0,yes,no,no,300025060015720,IMB-bio-rad,AWI,MOSAiC,North
2019-10-10T17:00:57Z,1570726858,2019,17,1,283.709,283.709,84.8252,136.0145,1018.6,-999.00,-999.0,yes,no,no,300025060015720,IMB-bio-rad,AWI,MOSAiC,North
2019-10-10T18:01:00Z,1570730460,2019,18,1,283.7507,283.7507,84.824,136.0331,1018.1,-999.00,-999.0,yes,no,no,300025060015720,IMB-bio-rad,AWI,MOSAiC,North
2019-10-10T19:01:03Z,1570734063,2019,19,1,283.7924,283.7924,84.8222,136.0612,1017.8,-999.00,-999.0,yes,no,no,300025060015720,IMB-bio-rad,AWI,MOSAiC,North
2019-10-10T20:00:57Z,1570737658,2019,20,1,283.834,283.834,84.8198,136.0923,1017.5,-999.00,-999.0,yes,no,no,300025060015720,IMB-bio-rad,AWI,MOSAiC,North
2019-10-10T21:01:00Z,1570741260,2019,21,1,283.8757,283.8757,84.8167,136.1278,1017.0,-999.00,-999.0,yes,no,no,300025060015720,IMB-bio-rad,AWI,MOSAiC,North
2019-10-10T22:01:03Z,1570744863,2019,22,1,283.9174,283.9174,84.813,136.1642,1016.8,-999.00,-999.0,yes,no,no,300025060015720,IMB-bio-rad,AWI,MOSAiC,North
2019-10-10T23:01:58Z,1570748518,2019,23,2,283.9597,283.9597,84.8086,136.1997,1016.3,-999.00,-999.0,yes,no,no,300025060015720,IMB-bio-rad,AWI,MOSAiC,North
2019-10-11T00:02:00Z,1570752121,2019,0,2,284.0014,284.0014,84.804,136.2304,1016.0,-999.00,-999.0,yes,no,no,300025060015720,IMB-bio-rad,AWI,MOSAiC,North
2019-10-11T01:01:03Z,1570755663,2019,1,1,284.0424,284.0424,84.7994,136.2551,1015.7,-999.00,-999.0,yes,no,no,300025060015720,IMB-bio-rad,AWI,MOSAiC,North
2019-10-11T02:00:57Z,1570759258,2019,2,1,284.084,284.084,84.7947,136.2767,1015.6,-999.00,-999.0,yes,no,no,300025060015720,IMB-bio-rad,AWI,MOSAiC,North
2019-10-11T03:01:00Z,1570762860,2019,3,1,284.1257,284.1257,84.7904,136.2934,1015.7,-999.00,-999.0,yes,no,no,300025060015720,IMB-bio-rad,AWI,MOSAiC,North
2019-10-11T04:01:03Z,1570766463,2019,4,1,284.1674,284.1674,84.787,136.3095,1015.7,-999.00,-999.0,yes,no,no,300025060015720,IMB-bio-rad,AWI,MOSAiC,North
2019-10-11T05:00:57Z,1570770058,2019,5,1,284.209,284.209,84.7843,136.3278,1015.5,-999.00,-999.0,yes,no,no,300025060015720,IMB-bio-rad,AWI,MOSAiC,North
2019-10-11T06:01:00Z,1570773660,2019,6,1,284.2507,284.2507,84.7818,136.3515,1015.1,-999.00,-999.0,yes,no,no,300025060015720,IMB-bio-rad,AWI,MOSAiC,North
2019-10-11T07:01:03Z,1570777263,2019,7,1,284.2924,284.2924,84.7773,136.3852,1014.9,-999.00,-999.0,yes,no,no,300025060015720,IMB-bio-rad,AWI,MOSAiC,North
2019-10-11T08:00:57Z,1570780858,2019,8,1,284.334,284.334,84.772,136.4148,1015.1,-999.00,-999.0,yes,no,no,300025060015720,IMB-bio-rad,AWI,MOSAiC,North
2019-10-11T09:02:00Z,1570784521,2019,9,2,284.3764,284.3764,84.7667,136.4336,1015.1,-999.00,-999.0,yes,no,no,300025060015720,IMB-bio-rad,AWI,MOSAiC,North
2019-10-11T10:01:03Z,1570788063,2019,10,1,284.4174,284.4174,84.7621,136.4427,1015.1,-999.00,-999.0,yes,no,no,300025060015720,IMB-bio-rad,AWI,MOSAiC,North
2019-10-11T11:00:57Z,1570791658,2019,11,1,284.459,284.459,84.7583,136.4467,1015.2,-999.00,-999.0,yes,no,no,300025060015720,IMB-bio-rad,AWI,MOSAiC,North
2019-10-11T12:01:00Z,1570795260,2019,12,1,284.5007,284.5007,84.7552,136.4488,1015.0,-999.00,-999.0,yes,no,no,300025060015720,IMB-bio-rad,AWI,MOSAiC,North
2019-10-11T13:02:03Z,1570798924,2019,13,2,284.5431,284.5431,84.7528,136.4538,1014.6,-999.00,-999.0,yes,no,no,300025060015720,IMB-bio-rad,AWI,MOSAiC,North
2019-10-11T14:01:58Z,1570802518,2019,14,2,284.5847,284.5847,84.7509,136.4642,1014.3,-999.00,-999.0,yes,no,no,300025060015720,IMB-bio-rad,AWI,MOSAiC,North
2019-10-11T15:01:00Z,1570806060,2019,15,1,284.6257,284.6257,84.7494,136.4829,1013.8,-999.00,-999.0,yes,no,no,300025060015720,IMB-bio-rad,AWI,MOSAiC,North
2019-10-11T16:01:03Z,1570809663,2019,16,1,284.6674,284.6674,84.7482,136.5072,1013.6,-999.00,-999.0,yes,no,no,300025060015720,IMB-bio-rad,AWI,MOSAiC,North
2019-10-11T17:00:57Z,1570813258,2019,17,1,284.709,284.709,84.7472,136.534,1013.3,-999.00,-999.0,yes,no,no,300025060015720,IMB-bio-rad,AWI,MOSAiC,North
2019-10-11T18:01:00Z,1570816860,2019,18,1,284.7507,284.7507,84.7457,136.5625,1013.0,-999.00,-999.0,yes,no,no,300025060015720,IMB-bio-rad,AWI,MOSAiC,North
2019-10-11T19:02:03Z,1570820524,2019,19,2,284.7931,284.7931,84.7441,136.5872,1012.7,-999.00,-999.0,yes,no,no,300025060015720,IMB-bio-rad,AWI,MOSAiC,North
2019-10-11T20:01:58Z,1570824118,2019,20,2,284.8347,284.8347,84.7424,136.6063,1012.3,-999.00,-999.0,yes,no,no,300025060015720,IMB-bio-rad,AWI,MOSAiC,North
2019-10-11T21:01:00Z,1570827660,2019,21,1,284.8757,284.8757,84.7411,136.619,1011.7,-999.00,-999.0,yes,no,no,300025060015720,IMB-bio-rad,AWI,MOSAiC,North
2019-10-11T22:01:03Z,1570831263,2019,22,1,284.9174,284.9174,84.7404,136.624,1011.3,-999.00,-999.0,yes,no,no,300025060015720,IMB-bio-rad,AWI,MOSAiC,North
2019-10-11T23:01:58Z,1570834918,2019,23,2,284.9597,284.9597,84.7405,136.6211,1010.4,-999.00,-999.0,yes,no,no,300025060015720,IMB-bio-rad,AWI,MOSAiC,North
2019-10-12T00:02:00Z,1570838521,2019,0,2,285.0014,285.0014,84.742,136.6138,1009.4,-999.00,-999.0,yes,no,no,300025060015720,IMB-bio-rad,AWI,MOSAiC,North
2019-10-12T01:02:03Z,1570842124,2019,1,2,285.0431,285.0431,84.7447,136.6087,1008.5,-999.00,-999.0,yes,no,no,300025060015720,IMB-bio-rad,AWI,MOSAiC,North
2019-10-12T02:01:58Z,1570845718,2019,2,2,285.0847,285.0847,84.7483,136.6097,1007.6,-999.00,-999.0,yes,no,no,300025060015720,IMB-bio-rad,AWI,MOSAiC,North
2019-10-12T03:01:00Z,1570849260,2019,3,1,285.1257,285.1257,84.7524,136.6149,1006.7,-999.00,-999.0,yes,no,no,300025060015720,IMB-bio-rad,AWI,MOSAiC,North
2019-10-12T04:01:03Z,1570852863,2019,4,1,285.1674,285.1674,84.7564,136.62,1005.6,-999.00,-999.0,yes,no,no,300025060015720,IMB-bio-rad,AWI,MOSAiC,North
2019-10-12T05:00:57Z,1570856458,2019,5,1,285.209,285.209,84.7602,136.621,1004.3,-999.00,-999.0,yes,no,no,300025060015720,IMB-bio-rad,AWI,MOSAiC,North
2019-10-12T06:02:00Z,1570860121,2019,6,2,285.2514,285.2514,84.7635,136.618,1003.0,-999.00,-999.0,yes,no,no,300025060015720,IMB-bio-rad,AWI,MOSAiC,North
2019-10-12T07:01:03Z,1570863663,2019,7,1,285.2924,285.2924,84.7659,136.6092,1002.0,-999.00,-999.0,yes,no,no,300025060015720,IMB-bio-rad,AWI,MOSAiC,North
2019-10-12T08:00:57Z,1570867258,2019,8,1,285.334,285.334,84.7676,136.5939,1001.1,-999.00,-999.0,yes,no,no,300025060015720,IMB-bio-rad,AWI,MOSAiC,North
2019-10-12T09:01:00Z,1570870860,2019,9,1,285.3757,285.3757,84.7686,136.57,1000.6,-999.00,-999.0,yes,no,no,300025060015720,IMB-bio-rad,AWI,MOSAiC,North
2019-10-12T10:01:03Z,1570874463,2019,10,1,285.4174,285.4174,84.7694,136.5371,1000.3,-999.00,-999.0,yes,no,no,300025060015720,IMB-bio-rad,AWI,MOSAiC,North
2019-10-12T11:01:58Z,1570878118,2019,11,2,285.4597,285.4597,84.7703,136.4944,999.9,-999.00,-999.0,yes,no,no,300025060015720,IMB-bio-rad,AWI,MOSAiC,North
2019-10-12T12:02:00Z,1570881721,2019,12,2,285.5014,285.5014,84.7716,136.4458,999.7,-999.00,-999.0,yes,no,no,300025060015720,IMB-bio-rad,AWI,MOSAiC,North
2019-10-12T13:01:03Z,1570885263,2019,13,1,285.5424,285.5424,84.7731,136.3964,999.6,-999.00,-999.0,yes,no,no,300025060015720,IMB-bio-rad,AWI,MOSAiC,North
2019-10-12T14:00:57Z,1570888858,2019,14,1,285.584,285.584,84.7747,136.3501,999.8,-999.00,-999.0,yes,no,no,300025060015720,IMB-bio-rad,AWI,MOSAiC,North
2019-10-12T15:02:00Z,1570892521,2019,15,2,285.6264,285.6264,84.7763,136.3116,999.9,-999.00,-999.0,yes,no,no,300025060015720,IMB-bio-rad,AWI,MOSAiC,North
2019-10-12T16:01:03Z,1570896063,2019,16,1,285.6674,285.6674,84.7776,136.2818,1000.2,-999.00,-999.0,yes,no,no,300025060015720,IMB-bio-rad,AWI,MOSAiC,North
2019-10-12T17:01:58Z,1570899718,2019,17,2,285.7097,285.7097,84.7783,136.2578,1000.4,-999.00,-999.0,yes,no,no,300025060015720,IMB-bio-rad,AWI,MOSAiC,North
2019-10-12T18:01:00Z,1570903260,2019,18,1,285.7507,285.7507,84.7783,136.2363,1000.6,-999.00,-999.0,yes,no,no,300025060015720,IMB-bio-rad,AWI,MOSAiC,North
2019-10-12T19:01:03Z,1570906863,2019,19,1,285.7924,285.7924,84.7777,136.2135,1001.1,-999.00,-999.0,yes,no,no,300025060015720,IMB-bio-rad,AWI,MOSAiC,North
2019-10-12T20:00:57Z,1570910458,2019,20,1,285.834,285.834,84.7767,136.1856,1001.4,-999.00,-999.0,yes,no,no,300025060015720,IMB-bio-rad,AWI,MOSAiC,North
2019-10-12T20:42:00Z,1570912920,2019,20,42,285.8625,285.8625,84.776,136.1627,1001.4,-999.00,-999.0,yes,no,no,300025060015720,IMB-bio-rad,AWI,MOSAiC,North
2019-10-12T21:03:01Z,1570914181,2019,21,3,285.8771,285.8771,84.7756,136.148,1001.5,-999.00,-999.0,yes,no,no,300025060015720,IMB-bio-rad,AWI,MOSAiC,North
2019-10-12T22:01:03Z,1570917663,2019,22,1,285.9174,285.9174,84.7748,136.1034,1002.0,-999.00,-999.0,yes,no,no,300025060015720,IMB-bio-rad,AWI,MOSAiC,North
2019-10-12T23:00:57Z,1570921258,2019,23,1,285.959,285.959,84.7743,136.0541,1002.2,-999.00,-999.0,yes,no,no,300025060015720,IMB-bio-rad,AWI,MOSAiC,North
2019-10-13T00:01:00Z,1570924860,2019,0,1,286.0007,286.0007,84.7741,136.0044,1002.8,-999.00,-999.0,yes,no,no,300025060015720,IMB-bio-rad,AWI,MOSAiC,North
2019-10-13T01:01:03Z,1570928463,2019,1,1,286.0424,286.0424,84.7743,135.9553,1003.2,-999.00,-999.0,yes,no,no,300025060015720,IMB-bio-rad,AWI,MOSAiC,North
2019-10-13T02:00:57Z,1570932058,2019,2,1,286.084,286.084,84.7745,135.9122,1003.7,-999.00,-999.0,yes,no,no,300025060015720,IMB-bio-rad,AWI,MOSAiC,North
2019-10-13T03:00:00Z,1570935600,2019,3,0,286.125,286.125,84.7744,135.8762,1004.0,-999.00,-999.0,yes,no,no,300025060015720,IMB-bio-rad,AWI,MOSAiC,North
2019-10-13T04:01:03Z,1570939263,2019,4,1,286.1674,286.1674,84.7738,135.846,1004.1,-999.00,-999.0,yes,no,no,300025060015720,IMB-bio-rad,AWI,MOSAiC,North
2019-10-13T05:00:57Z,1570942858,2019,5,1,286.209,286.209,84.7728,135.8201,1004.2,-999.00,-999.0,yes,no,no,300025060015720,IMB-bio-rad,AWI,MOSAiC,North
2019-10-13T06:01:00Z,1570946460,2019,6,1,286.2507,286.2507,84.7713,135.7944,1004.3,-999.00,-999.0,yes,no,no,300025060015720,IMB-bio-rad,AWI,MOSAiC,North
2019-10-13T07:01:03Z,1570950063,2019,7,1,286.2924,286.2924,84.7695,135.7679,1004.3,-999.00,-999.0,yes,no,no,300025060015720,IMB-bio-rad,AWI,MOSAiC,North
2019-10-13T08:00:57Z,1570953658,2019,8,1,286.334,286.334,84.7676,135.7383,1004.5,-999.00,-999.0,yes,no,no,300025060015720,IMB-bio-rad,AWI,MOSAiC,North
2019-10-13T09:01:00Z,1570957260,2019,9,1,286.3757,286.3757,84.7656,135.7061,1004.8,-999.00,-999.0,yes,no,no,300025060015720,IMB-bio-rad,AWI,MOSAiC,North
2019-10-13T10:01:03Z,1570960863,2019,10,1,286.4174,286.4174,84.7637,135.6725,1005.0,-999.00,-999.0,yes,no,no,300025060015720,IMB-bio-rad,AWI,MOSAiC,North
2019-10-13T11:00:57Z,1570964458,2019,11,1,286.459,286.459,84.762,135.6409,1005.1,-999.00,-999.0,yes,no,no,300025060015720,IMB-bio-rad,AWI,MOSAiC,North
2019-10-13T12:01:00Z,1570968060,2019,12,1,286.5007,286.5007,84.7603,135.6153,1005.1,-999.00,-999.0,yes,no,no,300025060015720,IMB-bio-rad,AWI,MOSAiC,North
2019-10-13T13:01:03Z,1570971663,2019,13,1,286.5424,286.5424,84.7587,135.5995,1004.8,-999.00,-999.0,yes,no,no,300025060015720,IMB-bio-rad,AWI,MOSAiC,North
2019-10-13T14:00:57Z,1570975258,2019,14,1,286.584,286.584,84.757,135.5924,1004.4,-999.00,-999.0,yes,no,no,300025060015720,IMB-bio-rad,AWI,MOSAiC,North
2019-10-13T15:01:00Z,1570978860,2019,15,1,286.6257,286.6257,84.7551,135.5951,1003.7,-999.00,-999.0,yes,no,no,300025060015720,IMB-bio-rad,AWI,MOSAiC,North
2019-10-13T16:00:02Z,1570982403,2019,16,0,286.6667,286.6667,84.7523,135.6064,1003.2,-999.00,-999.0,yes,no,no,300025060015720,IMB-bio-rad,AWI,MOSAiC,North
2019-10-13T16:41:57Z,1570984917,2019,16,42,286.6958,286.6958,84.7501,135.6175,1002.6,-999.00,-999.0,yes,no,no,300025060015720,IMB-bio-rad,AWI,MOSAiC,North
2019-10-13T17:02:58Z,1570986179,2019,17,3,286.7104,286.7104,84.7485,135.6237,1002.5,-999.00,-999.0,yes,no,no,300025060015720,IMB-bio-rad,AWI,MOSAiC,North
2019-10-13T18:01:00Z,1570989660,2019,18,1,286.7507,286.7507,84.7437,135.638,1002.0,-999.00,-999.0,yes,no,no,300025060015720,IMB-bio-rad,AWI,MOSAiC,North
2019-10-13T19:01:03Z,1570993263,2019,19,1,286.7924,286.7924,84.7384,135.6437,1001.7,-999.00,-999.0,yes,no,no,300025060015720,IMB-bio-rad,AWI,MOSAiC,North
2019-10-13T20:00:57Z,1570996858,2019,20,1,286.834,286.834,84.7333,135.6354,1001.5,-999.00,-999.0,yes,no,no,300025060015720,IMB-bio-rad,AWI,MOSAiC,North
2019-10-13T21:01:00Z,1571000460,2019,21,1,286.8757,286.8757,84.7285,135.6157,1001.7,-999.00,-999.0,yes,no,no,300025060015720,IMB-bio-rad,AWI,MOSAiC,North
2019-10-13T22:01:03Z,1571004063,2019,22,1,286.9174,286.9174,84.7236,135.5861,1002.1,-999.00,-999.0,yes,no,no,300025060015720,IMB-bio-rad,AWI,MOSAiC,North
2019-10-13T23:00:57Z,1571007658,2019,23,1,286.959,286.959,84.7194,135.5489,1002.5,-999.00,-999.0,yes,no,no,300025060015720,IMB-bio-rad,AWI,MOSAiC,North
2019-10-14T00:01:00Z,1571011260,2019,0,1,287.0007,287.0007,84.716,135.5115,1002.6,-999.00,-999.0,yes,no,no,300025060015720,IMB-bio-rad,AWI,MOSAiC,North
2019-10-14T01:01:03Z,1571014863,2019,1,1,287.0424,287.0424,84.7129,135.4774,1003.1,-999.00,-999.0,yes,no,no,300025060015720,IMB-bio-rad,AWI,MOSAiC,North
2019-10-14T02:00:57Z,1571018458,2019,2,1,287.084,287.084,84.71,135.4502,1003.2,-999.00,-999.0,yes,no,no,300025060015720,IMB-bio-rad,AWI,MOSAiC,North
2019-10-14T03:01:00Z,1571022060,2019,3,1,287.1257,287.1257,84.7072,135.4283,1003.8,-999.00,-999.0,yes,no,no,300025060015720,IMB-bio-rad,AWI,MOSAiC,North
2019-10-14T04:00:02Z,1571025603,2019,4,0,287.1667,287.1667,84.7044,135.4106,1004.4,-999.00,-999.0,yes,no,no,300025060015720,IMB-bio-rad,AWI,MOSAiC,North
2019-10-14T05:00:57Z,1571029258,2019,5,1,287.209,287.209,84.7017,135.3953,1004.7,-999.00,-999.0,yes,no,no,300025060015720,IMB-bio-rad,AWI,MOSAiC,North
2019-10-14T06:01:00Z,1571032860,2019,6,1,287.2507,287.2507,84.699,135.3828,1005.4,-999.00,-999.0,yes,no,no,300025060015720,IMB-bio-rad,AWI,MOSAiC,North
2019-10-14T07:00:02Z,1571036403,2019,7,0,287.2917,287.2917,84.6961,135.3704,1005.7,-999.00,-999.0,yes,no,no,300025060015720,IMB-bio-rad,AWI,MOSAiC,North
2019-10-14T08:00:57Z,1571040058,2019,8,1,287.334,287.334,84.6928,135.3567,1006.5,-999.00,-999.0,yes,no,no,300025060015720,IMB-bio-rad,AWI,MOSAiC,North
2019-10-14T09:01:00Z,1571043660,2019,9,1,287.3757,287.3757,84.6893,135.3385,1007.0,-999.00,-999.0,yes,no,no,300025060015720,IMB-bio-rad,AWI,MOSAiC,North